Location: Banff
(51.1667°N, 115.5667°W)
Time: 08:09:45
(UTC+00:00)

Envisat - Pass Details

Date: 05 December 2022
Orbit: 763 x 765 km, 98.2° (Epoch: 28 January)

Event Time Altitude Azimuth Distance (km) Brightness Sun altitude
Rises 11:24:54 0° 19° (NNE) 3,246 6.6 -37.2°
Reaches altitude 10° 11:27:22 10° 27° (NNE) 2,315 5.8 -36.8°
Enters shadow 11:29:17 21° 40° (NE) 1,660 5.1 -36.5°
